Daikoku — JD3247 — position and weather

sailwx.info

Track history (hours):
 
Tides and Currents Weather Stations Pressure Air Temp Water Temp Dewpoint Dewpoint Depression Visibility Wind Speed Wind Dir Waves Ship Positions

Daikoku

Last reported at 2014-Oct-22 12:33 UTC. Time now 2014-Oct-23 04:35 UTC.
Position N 35°12' E 139°46'.

Length 95 m; draft 3.6 m.

Type: Cargo ship. MMSI: 431003009.

Date/timePositionNaut miles runAvg speedWind from/ knotsBaromVisibWave heightAir tempDewpointWater temp
2014-Oct-22 12:33N 35°12' E 139°46'1312.9
2014-Oct-22 11:33N 35°24' E 139°43'2 2.2
2014-Oct-22 10:30N 35°26' E 139°41'2 2.5
2014-Oct-22 09:33N 35°27' E 139°44'2 1.8
2014-Oct-22 08:32N 35°28' E 139°42'8 8.6
2014-Oct-22 07:33N 35°30' E 139°52'8 7.0
2014-Oct-22 06:25N 35°28' E 140°01'7 7.7
2014-Oct-22 05:33N 35°31' E 139°53'4 1.9
2014-Oct-22 03:13N 35°30' E 139°48'2 2.6
2014-Oct-22 02:18N 35°29' E 139°45'6 8.4
2014-Oct-22 01:33N 35°23' E 139°46'1010.3
2014-Oct-22 00:33N 35°13' E 139°47'239 6.1
2014-Oct-20 09:32N 34°24' E 135°02'1313.4
2014-Oct-20 08:33N 34°32' E 135°14'8 7.7
2014-Oct-20 07:28N 34°41' E 135°16'0 0.1
2014-Oct-20 06:33N 34°41' E 135°16'2 1.8
2014-Oct-20 05:33N 34°40' E 135°14'0 0.1
2014-Oct-20 04:33N 34°40' E 135°14'0 0.0
2014-Oct-20 03:29N 34°40' E 135°14'0 0.0
2014-Oct-20 02:17N 34°40' E 135°14'0 0.5
2014-Oct-20 01:33N 34°40' E 135°14'0 0.3
2014-Oct-20 00:31N 34°40' E 135°14'0 0.0
2014-Oct-19 23:31N 34°40' E 135°14'0 0.0
2014-Oct-19 22:31N 34°40' E 135°14'1 0.9
2014-Oct-19 21:33N 34°40' E 135°15'3 2.6
2014-Oct-19 20:29N 34°37' E 135°15'0 0.0
2014-Oct-19 19:29N 34°37' E 135°15'0 0.0
2014-Oct-19 18:23N 34°37' E 135°15'0 0.1
2014-Oct-19 17:33N 34°37' E 135°15'10 9.8
2014-Oct-19 16:33N 34°28' E 135°09'1110.5
2014-Oct-19 15:32N 34°20' E 135°00'1110.8
2014-Oct-19 14:33N 34°10' E 134°60'24110.0
2014-Oct-18 14:31N 35°08' E 139°44'1111.3
2014-Oct-18 13:31N 35°19' E 139°43'1111.9
2014-Oct-18 12:34N 35°29' E 139°50'5 1.5
2014-Oct-18 09:04N 35°34' E 139°49'4 7.2
2014-Oct-18 08:27N 35°30' E 139°49'8 9.0
2014-Oct-18 07:33N 35°26' E 139°41'2 2.0
2014-Oct-18 06:33N 35°24' E 139°41'0 0.2
2014-Oct-18 05:33N 35°24' E 139°41'5 5.4
2014-Oct-18 04:34N 35°29' E 139°45'1 0.8
2014-Oct-18 03:33N 35°29' E 139°45'1110.7
2014-Oct-18 02:33N 35°19' E 139°44'1211.9
2014-Oct-18 01:32N 35°07' E 139°46'236 5.9
2014-Oct-16 09:32N 34°24' E 135°03'1212.5
2014-Oct-16 08:33N 34°33' E 135°14'8 8.2
2014-Oct-16 07:33N 34°41' E 135°17'3 2.8
2014-Oct-16 06:33N 34°40' E 135°14'0 0.0
2014-Oct-16 05:29N 34°40' E 135°14'0 0.0
2014-Oct-16 04:33N 34°40' E 135°14'3 2.7
2014-Oct-16 03:33N 34°38' E 135°16'9 8.8
2014-Oct-16 02:33N 34°30' E 135°11'1212.1
2014-Oct-16 01:33N 34°21' E 135°01'1211.5
2014-Oct-16 00:33N 34°10' E 134°59'  
Track history (hours):
 
Tides and Currents Weather Stations Pressure Air Temp Water Temp Dewpoint Dewpoint Depression Visibility Wind Speed Wind Dir Waves Ship Positions

Daikoku

Last reported at 2014-Oct-22 12:33 UTC. Time now 2014-Oct-23 04:35 UTC.
Position N 35°12' E 139°46'.

Length 95 m; draft 3.6 m.

Type: Cargo ship. MMSI: 431003009.

Date/timePositionNaut miles runAvg speedWind from/ knotsBaromVisibWave heightAir tempDewpointWater temp
2014-Oct-22 12:33N 35°12' E 139°46'1312.9
2014-Oct-22 11:33N 35°24' E 139°43'2 2.2
2014-Oct-22 10:30N 35°26' E 139°41'2 2.5
2014-Oct-22 09:33N 35°27' E 139°44'2 1.8
2014-Oct-22 08:32N 35°28' E 139°42'8 8.6
2014-Oct-22 07:33N 35°30' E 139°52'8 7.0
2014-Oct-22 06:25N 35°28' E 140°01'7 7.7
2014-Oct-22 05:33N 35°31' E 139°53'4 1.9
2014-Oct-22 03:13N 35°30' E 139°48'2 2.6
2014-Oct-22 02:18N 35°29' E 139°45'6 8.4
2014-Oct-22 01:33N 35°23' E 139°46'1010.3
2014-Oct-22 00:33N 35°13' E 139°47'239 6.1
2014-Oct-20 09:32N 34°24' E 135°02'1313.4
2014-Oct-20 08:33N 34°32' E 135°14'8 7.7
2014-Oct-20 07:28N 34°41' E 135°16'0 0.1
2014-Oct-20 06:33N 34°41' E 135°16'2 1.8
2014-Oct-20 05:33N 34°40' E 135°14'0 0.1
2014-Oct-20 04:33N 34°40' E 135°14'0 0.0
2014-Oct-20 03:29N 34°40' E 135°14'0 0.0
2014-Oct-20 02:17N 34°40' E 135°14'0 0.5
2014-Oct-20 01:33N 34°40' E 135°14'0 0.3
2014-Oct-20 00:31N 34°40' E 135°14'0 0.0
2014-Oct-19 23:31N 34°40' E 135°14'0 0.0
2014-Oct-19 22:31N 34°40' E 135°14'1 0.9
2014-Oct-19 21:33N 34°40' E 135°15'3 2.6
2014-Oct-19 20:29N 34°37' E 135°15'0 0.0
2014-Oct-19 19:29N 34°37' E 135°15'0 0.0
2014-Oct-19 18:23N 34°37' E 135°15'0 0.1
2014-Oct-19 17:33N 34°37' E 135°15'10 9.8
2014-Oct-19 16:33N 34°28' E 135°09'1110.5
2014-Oct-19 15:32N 34°20' E 135°00'1110.8
2014-Oct-19 14:33N 34°10' E 134°60'24110.0
2014-Oct-18 14:31N 35°08' E 139°44'1111.3
2014-Oct-18 13:31N 35°19' E 139°43'1111.9
2014-Oct-18 12:34N 35°29' E 139°50'5 1.5
2014-Oct-18 09:04N 35°34' E 139°49'4 7.2
2014-Oct-18 08:27N 35°30' E 139°49'8 9.0
2014-Oct-18 07:33N 35°26' E 139°41'2 2.0
2014-Oct-18 06:33N 35°24' E 139°41'0 0.2
2014-Oct-18 05:33N 35°24' E 139°41'5 5.4
2014-Oct-18 04:34N 35°29' E 139°45'1 0.8
2014-Oct-18 03:33N 35°29' E 139°45'1110.7
2014-Oct-18 02:33N 35°19' E 139°44'1211.9
2014-Oct-18 01:32N 35°07' E 139°46'236 5.9
2014-Oct-16 09:32N 34°24' E 135°03'1212.5
2014-Oct-16 08:33N 34°33' E 135°14'8 8.2
2014-Oct-16 07:33N 34°41' E 135°17'3 2.8
2014-Oct-16 06:33N 34°40' E 135°14'0 0.0
2014-Oct-16 05:29N 34°40' E 135°14'0 0.0
2014-Oct-16 04:33N 34°40' E 135°14'3 2.7
2014-Oct-16 03:33N 34°38' E 135°16'9 8.8
2014-Oct-16 02:33N 34°30' E 135°11'1212.1
2014-Oct-16 01:33N 34°21' E 135°01'1211.5
2014-Oct-16 00:33N 34°10' E 134°59'  

Dump ship's entire track history